KK4OHF Weather Reports


time (UTC)temp
C
wind
direction
speed
KPH
gust
KPH
rain 1hr
cm
rain 24hr
cm
rain mn
cm
humidity
%
barometer
mb
20260510141005 19 14 1.6 4.8 0.00 0.00 0.00 81 1016.9
20260510140505 20 304 1.6 3.2 0.00 0.00 0.00 82 1016.9
20260510140005 20 259 0.0 3.2 0.00 0.00 0.00 84 1016.9
20260510135505 20 303 0.0 3.2 0.00 0.00 0.00 85 1016.9
20260510135005 19 32 1.6 3.2 0.00 0.00 0.00 86 1016.9
20260510134505 19 32 1.6 3.2 0.00 0.00 0.00 86 1016.9
20260510134005 18 34 0.0 1.6 0.00 0.00 0.00 89 1015.1
20260510133506 18 34 1.6 3.2 0.00 0.00 0.00 91 1015.1
20260510133005 17 27 3.2 4.8 0.00 0.00 0.00 92 1015.1
20260510132505 17 26 0.0 1.6 0.00 0.00 0.00 92 1015.1
20260510132007 17 26 0.0 1.6 0.00 0.00 0.00 93 1015.1
20260510131505 17 26 0.0 0.0 0.00 0.00 0.00 93 1015.1
20260510130505 17 26 0.0 1.6 0.00 0.00 0.00 93 1015.1
20260510130005 17 26 0.0 1.6 0.00 0.00 0.00 93 1015.1
20260510125005 17 26 0.0 4.8 0.00 0.00 0.00 94 1015.1
20260510124504 16 33 0.0 1.6 0.00 0.00 0.00 93 1015.1
20260510124005 16 33 0.0 3.2 0.00 0.00 0.00 93 1015.1
20260510123005 16 27 1.6 4.8 0.00 0.00 0.00 93 1015.1
20260510122505 16 24 1.6 1.6 0.00 0.00 0.00 94 1015.1
20260510122005 16 24 0.0 3.2 0.00 0.00 0.00 94 1015.1
20260510121005 16 22 1.6 4.8 0.00 0.00 0.00 93 1015.1
20260510120506 16 329 1.6 3.2 0.00 0.00 0.00 93 1015.1
20260510115506 16 279 0.0 1.6 0.00 0.00 0.00 93 1015.1
20260510115006 16 279 0.0 4.8 0.00 0.00 0.00 93 1015.1
20260510114505 16 301 0.0 1.6 0.00 0.00 0.00 93 1015.1
20260510114005 16 301 0.0 1.6 0.00 0.00 0.00 93 1015.1
20260510113504 16 301 0.0 8.0 0.00 0.00 0.00 93 1015.1
20260510113005 16 291 3.2 8.0 0.00 0.00 0.00 93 1015.1
20260510112005 16 303 0.0 3.2 0.00 0.00 0.00 93 1015.1
20260510111506 16 303 0.0 1.6 0.00 0.00 0.00 93 1015.1
20260510111005 16 303 0.0 4.8 0.00 0.00 0.00 93 1014.8
20260510110005 16 288 0.0 8.0 0.00 0.00 0.00 93 1013.5
20260510105505 16 287 3.2 8.0 0.00 0.00 0.00 93 1013.5
20260510105005 16 297 1.6 4.8 0.00 0.00 0.00 93 1013.5
20260510104505 16 298 0.0 4.8 0.00 0.00 0.00 93 1013.5
20260510103505 16 292 0.0 4.8 0.00 0.00 0.00 93 1013.5
20260510102505 16 288 0.0 4.8 0.00 0.00 0.00 93 1013.5
20260510102005 16 296 1.6 4.8 0.00 0.00 0.00 93 1013.5
20260510101504 16 283 1.6 4.8 0.00 0.00 0.00 93 1013.5
20260510101005 16 294 1.6 4.8 0.00 0.00 0.00 93 1013.5
20260510100506 16 293 0.0 0.0 0.00 0.00 0.00 93 1013.5
20260510095505 16 274 0.0 0.0 0.00 0.00 0.00 93 1013.5
20260510095005 16 290 0.0 0.0 0.00 0.00 0.00 93 1013.5
20260510094505 16 289 0.0 0.0 0.00 0.00 0.00 93 1013.5
20260510093505 16 293 0.0 0.0 0.00 0.00 0.00 93 1013.5
20260510093006 16 293 0.0 0.0 0.00 0.00 0.00 93 1013.5
20260510092505 16 292 0.0 0.0 0.00 0.00 0.00 93 1013.5
20260510091505 15 291 0.0 0.0 0.00 0.00 0.00 93 1013.5
20260510091006 15 276 0.0 0.0 0.00 0.00 0.00 93 1013.5
20260510090505 15 235 0.0 0.0 0.00 0.00 0.00 93 1013.5
20260510090005 15 295 0.0 0.0 0.00 0.00 0.00 93 1013.5
20260510085504 15 262 0.0 0.0 0.00 0.00 0.00 93 1013.5
20260510084505 15 271 0.0 0.0 0.00 0.00 0.00 93 1013.5
20260510084007 15 289 0.0 0.0 0.00 0.00 0.00 93 1013.5
20260510083506 15 256 0.0 0.0 0.00 0.00 0.00 93 1013.5
20260510083006 15 255 0.0 0.0 0.00 0.00 0.00 93 1013.4
20260510082505 15 255 0.0 0.0 0.00 0.00 0.00 93 1013.4
20260510082004 15 255 0.0 0.0 0.00 0.00 0.00 93 1013.4
20260510081505 15 255 0.0 0.0 0.00 0.00 0.00 93 1013.4
20260510081006 15 255 0.0 0.0 0.00 0.00 0.00 93 1012.8
20260510080505 15 255 0.0 0.0 0.00 0.00 0.00 93 1012.8
20260510075505 15 255 0.0 0.0 0.00 0.00 0.00 93 1012.8
20260510075006 15 255 0.0 0.0 0.00 0.00 0.00 93 1012.8
20260510074504 15 255 0.0 0.0 0.00 0.00 0.00 93 1012.8
20260510074006 15 255 0.0 0.0 0.00 0.00 0.00 93 1012.8
20260510073505 15 255 0.0 0.0 0.00 0.00 0.00 93 1012.8
20260510072505 15 255 0.0 0.0 0.00 0.00 0.00 93 1012.8
20260510072005 15 255 0.0 0.0 0.00 0.00 0.00 93 1012.8
20260510071506 15 271 0.0 0.0 0.00 0.00 0.00 93 1012.8
20260510071005 15 271 0.0 0.0 0.00 0.00 0.00 93 1012.8
20260510070505 15 271 0.0 0.0 0.00 0.00 0.00 93 1012.8
20260510070005 16 264 0.0 0.0 0.00 0.00 0.00 93 1012.8
20260510065505 16 250 0.0 0.0 0.00 0.00 0.00 93 1012.8
20260510065005 16 248 0.0 0.0 0.00 0.00 0.00 93 1012.8
20260510064505 16 239 0.0 0.0 0.00 0.00 0.00 93 1012.8
20260510064005 16 239 0.0 0.0 0.00 0.00 0.00 93 1012.8
20260510063505 16 239 0.0 0.0 0.00 0.00 0.00 93 1012.8
20260510063006 16 239 0.0 0.0 0.00 0.00 0.00 93 1012.8
20260510062505 16 239 0.0 0.0 0.00 0.00 0.00 93 1012.8
20260510062005 16 239 0.0 0.0 0.00 0.00 0.00 93 1012.8
20260510061505 16 239 0.0 0.0 0.00 0.00 0.00 93 1012.8
20260510061005 16 239 0.0 0.0 0.00 0.00 0.00 93 1012.8
20260510060505 16 239 0.0 0.0 0.00 0.00 0.00 93 1012.8
20260510060006 16 239 0.0 0.0 0.00 0.00 0.00 93 1012.8
20260510054505 16 239 0.0 0.0 0.00 0.00 0.00 93 1012.8
20260510054005 16 239 0.0 0.0 0.00 0.00 0.00 93 1012.8
20260510053505 16 239 0.0 0.0 0.00 0.00 0.00 93 1012.8
20260510053005 16 239 0.0 0.0 0.00 0.00 0.00 93 1012.8
20260510052505 16 239 0.0 0.0 0.00 0.00 0.00 93 1012.8
20260510052005 16 239 0.0 0.0 0.00 0.00 0.00 93 1012.8
20260510051505 16 239 0.0 0.0 0.00 0.00 0.00 92 1012.8
20260510051005 16 239 0.0 0.0 0.00 0.00 0.00 92 1012.8
20260510050506 16 239 0.0 0.0 0.00 0.00 0.00 92 1012.8
20260510050005 16 239 0.0 0.0 0.00 0.00 0.00 92 1012.8
20260510045005 16 239 0.0 0.0 0.00 0.00 0.00 92 1012.8
20260510044505 16 239 0.0 0.0 0.00 0.00 0.00 92 1012.8
20260510044005 16 239 0.0 0.0 0.00 0.00 0.00 92 1012.8
20260510043505 16 239 0.0 0.0 0.00 0.00 0.00 92 1012.8
20260510043006 17 239 0.0 0.0 0.00 0.00 0.00 92 1012.8
20260510042005 17 239 0.0 0.0 0.00 0.00 0.00 92 1012.8
20260510041505 17 239 0.0 0.0 0.00 0.00 0.00 92 1012.8
20260510041006 17 239 0.0 0.0 0.00 0.00 0.00 92 1012.8
20260510040005 17 239 0.0 0.0 0.00 0.00 0.00 92 1012.8
20260510034505 17 239 0.0 0.0 0.00 0.00 0.00 92 1012.8
20260510034005 17 239 0.0 0.0 0.00 0.00 0.00 92 1012.8
20260510033505 17 239 0.0 0.0 0.00 0.00 0.00 92 1012.8
20260510033005 17 239 0.0 0.0 0.00 0.00 0.00 92 1012.8
20260510032506 17 239 0.0 0.0 0.00 0.00 0.00 91 1012.8
20260510032005 17 239 0.0 0.0 0.00 0.00 0.00 91 1012.8
20260510031505 17 239 0.0 0.0 0.00 0.00 0.00 91 1012.8
20260510031006 17 239 0.0 0.0 0.00 0.00 0.00 91 1012.8
20260510030505 17 239 0.0 0.0 0.00 0.00 0.00 91 1012.8
20260510030005 17 239 0.0 0.0 0.00 0.00 0.00 91 1012.8
20260510025505 17 239 0.0 0.0 0.00 0.00 0.00 91 1012.8
20260510025005 17 239 0.0 0.0 0.00 0.00 0.00 91 1012.8
20260510024005 17 178 0.0 0.0 0.00 0.00 0.00 90 1012.8
20260510023505 17 178 0.0 0.0 0.00 0.00 0.00 90 1012.8
20260510023005 17 178 0.0 0.0 0.00 0.00 0.00 90 1012.8
20260510022506 17 178 0.0 0.0 0.00 0.00 0.00 90 1012.8
20260510022005 17 178 0.0 0.0 0.00 0.00 0.00 90 1012.8
20260510021505 17 178 0.0 0.0 0.00 0.00 0.00 89 1012.8
20260510021005 18 178 0.0 0.0 0.00 0.00 0.00 89 1012.8
20260510020005 18 178 0.0 0.0 0.00 0.00 0.00 89 1012.4
20260510015506 18 157 0.0 0.0 0.00 0.00 0.00 89 1012.4
20260510015005 18 157 0.0 0.0 0.00 0.00 0.00 88 1012.4
20260510014505 18 157 0.0 0.0 0.00 0.00 0.00 88 1012.4
20260510014005 18 157 0.0 0.0 0.00 0.00 0.00 88 1012.4
20260510013006 18 226 0.0 0.0 0.00 0.00 0.00 88 1012.4
20260510012505 18 146 0.0 0.0 0.00 0.00 0.00 87 1012.4
20260510012005 18 146 0.0 0.0 0.00 0.00 0.00 87 1012.4
20260510011505 18 146 0.0 0.0 0.00 0.00 0.00 87 1012.4
20260510011005 18 146 0.0 0.0 0.00 0.00 0.00 86 1012.4
20260510010006 18 159 0.0 1.6 0.00 0.00 0.00 86 1012.1
20260510005505 18 147 1.6 4.8 0.00 0.00 0.00 86 1012.1
20260510004505 18 136 0.0 3.2 0.00 0.00 0.00 86 1010.9
20260510004006 18 188 0.0 1.6 0.00 0.00 0.00 86 1010.9
20260510003505 18 198 0.0 1.6 0.00 0.00 0.00 86 1010.9
20260510003006 19 198 0.0 1.6 0.00 0.00 0.00 85 1010.9
20260510002504 19 198 0.0 0.0 0.00 0.00 0.00 85 1010.9
20260510002005 19 240 0.0 1.6 0.00 0.00 0.00 85 1010.9
20260510001006 20 240 0.0 0.0 0.00 0.00 0.00 83 1010.9
20260510000505 20 240 0.0 0.0 0.00 0.00 0.00 83 1010.9
20260510000006 20 240 0.0 0.0 0.00 0.00 0.00 82 1010.9
20260509235505 20 240 0.0 0.0 0.00 0.00 0.00 81 1010.9
20260509234506 20 240 0.0 0.0 0.00 0.00 0.00 80 1010.9
20260509234007 20 240 0.0 0.0 0.00 0.00 0.00 80 1010.9
20260509233505 20 240 0.0 0.0 0.00 0.00 0.00 79 1010.9
20260509233006 20 240 0.0 1.6 0.00 0.00 0.00 79 1010.9
20260509232506 20 240 0.0 1.6 0.00 0.00 0.00 79 1010.9
20260509232005 20 240 0.0 1.6 0.00 0.00 0.00 79 1010.9
20260509231005 21 240 0.0 3.2 0.00 0.00 0.00 77 1010.9
20260509230506 21 235 0.0 3.2 0.00 0.00 0.00 77 1010.9
20260509225506 21 179 0.0 1.6 0.00 0.00 0.00 75 1010.9
20260509225005 21 263 1.6 3.2 0.00 0.00 0.00 75 1010.9
20260509224506 21 261 0.0 3.2 0.00 0.00 0.00 75 1010.9
20260509223506 21 107 0.0 1.6 0.00 0.00 0.00 75 1010.9
20260509223005 21 107 0.0 3.2 0.00 0.00 0.00 75 1010.9
20260509222505 21 94 0.0 3.2 0.00 0.00 0.00 74 1010.9
20260509222005 21 141 1.6 3.2 0.00 0.00 0.00 74 1010.9
20260509221505 21 164 0.0 3.2 0.00 0.00 0.00 73 1010.9
20260509221006 21 115 0.0 3.2 0.00 0.00 0.00 73 1010.9
20260509220006 22 227 0.0 3.2 0.00 0.00 0.00 72 1010.9
20260509215005 22 195 0.0 1.6 0.00 0.00 0.00 72 1010.9
20260509214505 22 98 0.0 1.6 0.00 0.00 0.00 71 1010.9
20260509214006 22 116 0.0 1.6 0.00 0.00 0.00 71 1010.9
20260509213505 22 190 0.0 3.2 0.00 0.00 0.00 70 1010.9
20260509213005 22 118 1.6 4.8 0.00 0.00 0.00 71 1011.0
20260509212506 22 122 0.0 4.8 0.00 0.00 0.00 70 1011.0
20260509212005 22 149 0.0 3.2 0.00 0.00 0.00 70 1011.0
20260509211505 22 218 1.6 4.8 0.00 0.00 0.00 70 1011.0
20260509211005 22 160 0.0 3.2 0.00 0.00 0.00 70 1011.0
20260509210504 22 251 0.0 3.2 0.00 0.00 0.00 70 1011.0
20260509210005 22 127 0.0 3.2 0.00 0.00 0.00 69 1011.0
20260509205504 22 240 1.6 3.2 0.00 0.00 0.00 70 1011.0
20260509205006 22 194 0.0 4.8 0.00 0.00 0.00 70 1011.0
20260509204505 22 233 0.0 3.2 0.00 0.00 0.00 70 1011.0
20260509204006 22 146 0.0 3.2 0.00 0.00 0.00 71 1011.0
20260509203505 22 280 1.6 4.8 0.00 0.00 0.00 67 1011.0
20260509202504 22 228 1.6 4.8 0.00 0.00 0.00 70 1011.0
20260509202005 22 253 1.6 4.8 0.00 0.00 0.00 69 1011.0
20260509201505 22 48 0.0 1.6 0.00 0.00 0.00 70 1011.0
20260509200505 22 158 0.0 3.2 0.00 0.00 0.00 69 1011.0
20260509200005 22 265 0.0 4.8 0.00 0.00 0.00 69 1011.0
20260509195506 22 154 0.0 1.6 0.00 0.00 0.00 68 1011.0
20260509195005 22 152 1.6 8.0 0.00 0.00 0.00 68 1011.6
20260509194506 22 255 1.6 8.0 0.00 0.00 0.00 69 1011.6
20260509194007 22 319 1.6 4.8 0.00 0.00 0.00 68 1011.6
20260509193505 22 177 0.0 3.2 0.00 0.00 0.00 71 1011.6
20260509193005 22 201 0.0 3.2 0.00 0.00 0.00 70 1011.6
20260509192505 22 313 0.0 3.2 0.00 0.00 0.00 71 1011.6
20260509192005 22 306 0.0 3.2 0.00 0.00 0.00 72 1011.6
20260509191504 22 107 1.6 3.2 0.00 0.00 0.00 72 1011.6
20260509191005 21 290 1.6 3.2 0.00 0.00 0.00 70 1011.6
20260509190006 22 273 1.6 4.8 0.00 0.00 0.00 69 1011.6
20260509185005 22 188 0.0 3.2 0.00 0.00 0.00 69 1011.6
20260509184505 22 135 3.2 4.8 0.00 0.00 0.00 70 1011.6
20260509184006 22 32 1.6 3.2 0.00 0.00 0.00 69 1011.6
20260509183505 22 260 0.0 3.2 0.00 0.00 0.00 69 1011.6
20260509183006 21 252 3.2 4.8 0.00 0.00 0.00 67 1011.6
20260509182505 21 267 1.6 4.8 0.00 0.00 0.00 69 1011.6
20260509182005 21 135 1.6 4.8 0.00 0.00 0.00 70 1011.6
20260509181505 21 213 1.6 4.8 0.00 0.00 0.00 71 1011.6
20260509181005 21 170 0.0 9.7 0.00 0.00 0.00 71 1011.6
20260509180005 21 295 1.6 8.0 0.00 0.00 0.00 72 1011.6
20260509175505 21 275 1.6 4.8 0.00 0.00 0.00 71 1011.6
20260509175005 21 159 1.6 4.8 0.00 0.00 0.00 72 1011.6
20260509174506 21 147 1.6 3.2 0.00 0.00 0.00 75 1011.6
20260509174005 20 274 0.0 4.8 0.00 0.00 0.00 74 1011.6
20260509173506 21 302 1.6 3.2 0.00 0.00 0.00 73 1011.6
20260509172505 20 276 3.2 8.0 0.00 0.00 0.00 74 1011.6
20260509172005 20 28 1.6 4.8 0.00 0.00 0.00 76 1011.6
20260509171505 20 216 3.2 11.3 0.00 0.00 0.00 77 1011.6
20260509171006 20 228 1.6 8.0 0.00 0.00 0.00 80 1011.6
20260509170505 19 236 0.0 4.8 0.00 0.00 0.00 80 1011.6
20260509165005 19 227 1.6 4.8 0.00 0.00 0.00 81 1012.2
20260509164005 18 306 3.2 4.8 0.00 0.00 0.00 82 1012.2
20260509163505 18 229 1.6 4.8 0.00 0.00 0.00 84 1012.2
20260509163006 18 227 1.6 4.8 0.00 0.00 0.00 86 1012.2
20260509162005 17 273 3.2 12.9 0.00 0.00 0.00 87 1012.2
20260509161504 17 305 3.2 4.8 0.00 0.00 0.00 88 1012.2
20260509160505 17 256 1.6 8.0 0.00 0.00 0.00 89 1012.2
20260509160005 17 241 4.8 9.7 0.00 0.00 0.00 90 1012.2
20260509155504 17 243 3.2 4.8 0.00 0.00 0.00 91 1012.2
20260509155005 17 297 3.2 11.3 0.00 0.00 0.00 91 1012.5
20260509154505 17 226 0.0 4.8 0.00 0.00 0.00 92 1012.5
20260509154006 17 247 1.6 4.8 0.00 0.00 0.00 92 1012.5
20260509153505 17 248 1.6 4.8 0.00 0.00 0.00 92 1012.5
20260509153005 17 272 1.6 4.8 0.00 0.00 0.00 92 1012.5
20260509152505 17 259 0.0 4.8 0.00 0.00 0.00 92 1012.5
20260509152004 17 263 4.8 8.0 0.00 0.00 0.00 92 1012.5
20260509151506 17 276 3.2 4.8 0.00 0.00 0.00 93 1012.5
20260509151006 16 283 1.6 4.8 0.00 0.00 0.00 93 1012.5
20260509150504 16 272 1.6 4.8 0.00 0.00 0.00 93 1012.5
20260509150004 16 255 3.2 4.8 0.00 0.00 0.00 93 1012.5
20260509145006 16 143 1.6 4.8 0.00 0.00 0.00 93 1012.5
20260509144506 16 187 1.6 4.8 0.00 0.00 0.00 93 1012.5
20260509144006 16 231 1.6 4.8 0.00 0.00 0.00 93 1012.5
20260509143505 16 202 0.0 3.2 0.00 0.00 0.00 93 1012.5
20260509143006 16 202 0.0 3.2 0.00 0.00 0.00 93 1012.5
20260509142505 16 202 0.0 1.6 0.00 0.00 0.00 92 1012.5